User: anonymous   Login
Location: Asheville, NC
(35.6000°N, 82.5500°W)
Time: 02:53:43
(UTC-05:00)
Language:

STRAND 1 - Orbit

View from above orbital plane
View from above orbital plane
View from above satellite
View from above satellite

Ground track
Ground track

The orbit data is extracted from the following two-line orbital elements,

1 39090U 13009E   18021.61643172 +.00000007 +00000-0 +17660-4 0  9997
2 39090 098.5333 229.7819 0009566 019.0860 341.0682 14.35007477256782
Epoch (UTC): 21 January 2018 14:47:39
Eccentricity: 0.0009566
inclination: 98.5333°
perigee height: 768 km
apogee height: 782 km
right ascension of ascending node: 229.7819°
argument of perigee: 19.0860°
revolutions per day: 14.35007477
mean anomaly at epoch: 341.0682°
orbit number at epoch: 25678

The dashed part of the orbit path shows where the satellite is in the earth's shadow,  

DLR